When you browse on this site, cookies collect data to enhance your experience and personalize the content and advertising you see.
Visit our Privacy Policy to learn more. By continuing to use the site, you agree to this use of cookies and data.

Meteo pe oră la Dziardonice

Astăzi, 19 Septembrie, Sâmbătă

Timp Temperatura Precipitaţii Vânt Presiune Umiditate
00:00 +11°C° 0 mm 1 m/s 760 mmHg 58%
01:00 +10°C° 0 mm 1 m/s 760 mmHg 59%
02:00 +10°C° 0 mm 1 m/s 760 mmHg 60%
03:00 +10°C° 0 mm 1 m/s 759 mmHg 61%
04:00 +10°C° 0 mm 1 m/s 759 mmHg 63%
05:00 +10°C° 0 mm 1 m/s 759 mmHg 62%
06:00 +11°C° 0 mm 1 m/s 759 mmHg 61%
07:00 +12°C° 0 mm 1 m/s 759 mmHg 57%
08:00 +13°C° 0 mm 1 m/s 759 mmHg 53%
09:00 +15°C° 0 mm 1 m/s 759 mmHg 49%
10:00 +16°C° 0 mm 1 m/s 759 mmHg 45%
11:00 +18°C° 0 mm 1 m/s 759 mmHg 42%
12:00 +19°C° 0 mm 1 m/s 759 mmHg 39%
13:00 +20°C° 0 mm 1 m/s 758 mmHg 36%
14:00 +20°C° 0 mm 1 m/s 758 mmHg 38%
15:00 +18°C° 0 mm 0 m/s 758 mmHg 39%
16:00 +18°C° 0 mm 0 m/s 757 mmHg 40%
17:00 +18°C° 0 mm 1 m/s 757 mmHg 44%
18:00 +15°C° 0 mm 1 m/s 757 mmHg 48%
19:00 +13°C° 0 mm 1 m/s 757 mmHg 51%
20:00 +13°C° 0 mm 1 m/s 757 mmHg 52%
21:00 +13°C° 0 mm 1 m/s 757 mmHg 52%
22:00 +12°C° 0 mm 1 m/s 757 mmHg 53%
23:00 +12°C° 0 mm 1 m/s 757 mmHg 54%

Mâine, 20 Septembrie, Duminică

Timp Temperatura Precipitaţii Vânt Presiune Umiditate
00:00 +11°C° 0 mm 1 m/s 757 mmHg 55%
01:00 +11°C° 0 mm 1 m/s 757 mmHg 56%
02:00 +11°C° 0 mm 1 m/s 757 mmHg 57%
03:00 +9°C° 0 mm 2 m/s 757 mmHg 58%
04:00 +9°C° 0 mm 2 m/s 756 mmHg 59%
05:00 +10°C° 0 mm 2 m/s 757 mmHg 59%
06:00 +10°C° 0 mm 2 m/s 757 mmHg 60%
07:00 +10°C° 0 mm 2 m/s 757 mmHg 60%
08:00 +13°C° 0 mm 2 m/s 757 mmHg 55%
09:00 +14°C° 0 mm 3 m/s 757 mmHg 50%
10:00 +17°C° 0 mm 3 m/s 757 mmHg 46%
11:00 +18°C° 0 mm 3 m/s 756 mmHg 43%
12:00 +19°C° 0 mm 3 m/s 756 mmHg 40%
13:00 +20°C° 0 mm 3 m/s 756 mmHg 37%
14:00 +19°C° 0 mm 3 m/s 755 mmHg 39%
15:00 +19°C° 0 mm 3 m/s 755 mmHg 42%
16:00 +19°C° 0 mm 2 m/s 755 mmHg 44%
17:00 +17°C° 0 mm 2 m/s 755 mmHg 47%
18:00 +16°C° 0 mm 2 m/s 755 mmHg 50%
19:00 +14°C° 0 mm 2 m/s 755 mmHg 53%
20:00 +13°C° 0 mm 2 m/s 755 mmHg 55%
21:00 +13°C° 0 mm 2 m/s 755 mmHg 57%
22:00 +12°C° 0 mm 2 m/s 755 mmHg 58%
23:00 +12°C° 0 mm 2 m/s 755 mmHg 61%

Poimâine, 21 Septembrie, Luni

Timp Temperatura Precipitaţii Vânt Presiune Umiditate
00:00 +12°C° 0 mm 2 m/s 755 mmHg 63%
01:00 +10°C° 0 mm 2 m/s 754 mmHg 65%
02:00 +10°C° 0 mm 2 m/s 754 mmHg 68%
03:00 +10°C° 0 mm 2 m/s 754 mmHg 71%
04:00 +9°C° 0 mm 2 m/s 754 mmHg 74%
05:00 +10°C° 0 mm 2 m/s 754 mmHg 73%
06:00 +10°C° 0 mm 2 m/s 754 mmHg 72%
07:00 +12°C° 0 mm 2 m/s 754 mmHg 71%
08:00 +14°C° 0 mm 2 m/s 754 mmHg 65%
09:00 +16°C° 0 mm 2 m/s 754 mmHg 59%
10:00 +19°C° 0 mm 2 m/s 754 mmHg 54%
11:00 +20°C° 0 mm 2 m/s 754 mmHg 50%
12:00 +21°C° 0 mm 2 m/s 753 mmHg 46%
13:00 +24°C° 0 mm 2 m/s 753 mmHg 43%
14:00 +24°C° 0 mm 1 m/s 753 mmHg 43%
15:00 +24°C° 0 mm 1 m/s 753 mmHg 44%
16:00 +24°C° 0 mm 1 m/s 752 mmHg 44%
17:00 +22°C° 0 mm 1 m/s 752 mmHg 49%
18:00 +20°C° 0 mm 1 m/s 752 mmHg 53%
19:00 +18°C° 0 mm 1 m/s 752 mmHg 57%
20:00 +18°C° 0 mm 1 m/s 752 mmHg 58%
21:00 +18°C° 0 mm 1 m/s 752 mmHg 60%
22:00 +16°C° 0 mm 2 m/s 752 mmHg 61%
23:00 +16°C° 0 mm 2 m/s 752 mmHg 62%

22 Septembrie, Marţi

Timp Temperatura Precipitaţii Vânt Presiune Umiditate
00:00 +16°C° 0 mm 2 m/s 752 mmHg 64%
01:00 +15°C° 0 mm 2 m/s 751 mmHg 65%
02:00 +15°C° 0 mm 2 m/s 751 mmHg 65%
03:00 +15°C° 0 mm 2 m/s 751 mmHg 66%
04:00 +15°C° 0 mm 2 m/s 751 mmHg 66%
05:00 +15°C° 0 mm 2 m/s 751 mmHg 66%
06:00 +16°C° 0 mm 2 m/s 751 mmHg 65%
07:00 +16°C° 0 mm 2 m/s 751 mmHg 64%
08:00 +19°C° 0 mm 3 m/s 751 mmHg 58%
09:00 +21°C° 0 mm 4 m/s 751 mmHg 51%
10:00 +23°C° 0 mm 4 m/s 750 mmHg 44%
11:00 +26°C° 0 mm 5 m/s 750 mmHg 40%
12:00 +27°C° 0 mm 5 m/s 750 mmHg 37%
13:00 +28°C° 0 mm 6 m/s 749 mmHg 34%
14:00 +28°C° 0 mm 5 m/s 749 mmHg 36%
15:00 +27°C° 0 mm 4 m/s 748 mmHg 39%
16:00 +27°C° 0 mm 3 m/s 748 mmHg 41%
17:00 +25°C° 0 mm 3 m/s 748 mmHg 45%
18:00 +22°C° 0 mm 3 m/s 748 mmHg 50%
19:00 +20°C° 0 mm 3 m/s 748 mmHg 55%
20:00 +20°C° 0 mm 3 m/s 747 mmHg 56%
21:00 +19°C° 0 mm 3 m/s 747 mmHg 57%
22:00 +19°C° 0 mm 3 m/s 747 mmHg 58%
23:00 +18°C° 0 mm 3 m/s 747 mmHg 58%

23 Septembrie, Miercuri

Timp Temperatura Precipitaţii Vânt Presiune Umiditate
00:00 +18°C° 0 mm 3 m/s 747 mmHg 59%
01:00 +17°C° 0 mm 3 m/s 746 mmHg 59%
02:00 +17°C° 0 mm 3 m/s 746 mmHg 59%
03:00 +17°C° 0 mm 3 m/s 746 mmHg 60%
04:00 +16°C° 0 mm 3 m/s 745 mmHg 60%
05:00 +17°C° 0 mm 3 m/s 745 mmHg 60%
06:00 +17°C° 0 mm 3 m/s 745 mmHg 60%
07:00 +18°C° 0 mm 3 m/s 745 mmHg 60%
08:00 +20°C° 0 mm 4 m/s 745 mmHg 55%
09:00 +22°C° 0 mm 5 m/s 745 mmHg 51%
10:00 +25°C° 0 mm 5 m/s 745 mmHg 47%
11:00 +26°C° 0 mm 6 m/s 744 mmHg 46%
12:00 +27°C° 0 mm 6 m/s 744 mmHg 45%
13:00 +28°C° 0 mm 6 m/s 744 mmHg 45%
14:00 +27°C° 0 mm 5 m/s 743 mmHg 47%
15:00 +27°C° 0 mm 5 m/s 743 mmHg 49%
16:00 +26°C° 0 mm 4 m/s 743 mmHg 52%
17:00 +25°C° 0 mm 4 m/s 743 mmHg 57%
18:00 +22°C° 0 mm 3 m/s 743 mmHg 61%
19:00 +20°C° 0 mm 3 m/s 743 mmHg 66%
20:00 +20°C° 0 mm 3 m/s 743 mmHg 68%
21:00 +19°C° 0 mm 2 m/s 743 mmHg 71%
22:00 +19°C° 0 mm 2 m/s 743 mmHg 73%
23:00 +18°C° 0.2 mm 2 m/s 743 mmHg 76%

24 Septembrie, Joi

Timp Temperatura Precipitaţii Vânt Presiune Umiditate
00:00 +18°C° 0.2 mm 2 m/s 743 mmHg 79%
01:00 +18°C° 0.2 mm 2 m/s 743 mmHg 83%
02:00 +17°C° 0.2 mm 2 m/s 743 mmHg 85%
03:00 +17°C° 0.2 mm 2 m/s 743 mmHg 87%
04:00 +16°C° 0.2 mm 2 m/s 743 mmHg 90%
05:00 +17°C° 0.1 mm 2 m/s 743 mmHg 88%
06:00 +17°C° 0.1 mm 2 m/s 743 mmHg 85%
07:00 +17°C° 0.1 mm 2 m/s 744 mmHg 83%
08:00 +19°C° 0 mm 2 m/s 744 mmHg 76%
09:00 +20°C° 0 mm 3 m/s 744 mmHg 70%
10:00 +22°C° 0 mm 3 m/s 744 mmHg 63%
11:00 +24°C° 0 mm 3 m/s 744 mmHg 59%
12:00 +25°C° 0 mm 3 m/s 744 mmHg 54%
13:00 +26°C° 0 mm 3 m/s 744 mmHg 50%
14:00 +26°C° 0 mm 2 m/s 744 mmHg 50%
15:00 +25°C° 0 mm 2 m/s 744 mmHg 51%
16:00 +25°C° 0 mm 2 m/s 744 mmHg 52%
17:00 +24°C° 0 mm 2 m/s 743 mmHg 56%
18:00 +22°C° 0 mm 1 m/s 743 mmHg 61%
19:00 +21°C° 0 mm 1 m/s 743 mmHg 66%
20:00 +19°C° 0 mm 2 m/s 743 mmHg 67%
21:00 +19°C° 0 mm 2 m/s 743 mmHg 69%
22:00 +18°C° 0 mm 3 m/s 743 mmHg 70%
23:00 +18°C° 0 mm 3 m/s 742 mmHg 73%
Arată mai mult